Location: Harwich
(41.6860°N, 70.0760°W)
Time: 19:11:52
(UTC-04:00)

X-37B - Visible Passes

Search period start: 24 July 2021 00:00
Search period end: 03 August 2021 00:00
Orbit: 383 x 392 km, 45.0° (Epoch: 01 July)

Date Brightness Start Highest point End Pass type
(mag) Time Alt. Az. Time Alt. Az. Time Alt. Az.
28 Jul 3.4 04:49:20 10° SSE 04:49:50 10° SE 04:50:21 10° SE visible
30 Jul 2.7 04:27:20 11° S 04:29:29 19° SE 04:31:50 10° E visible
31 Jul 3.4 03:31:36 10° SE 03:31:36 10° SE 03:31:56 10° SE visible
01 Aug 1.7 04:08:05 25° S 04:09:12 33° SSE 04:12:07 10° E visible
02 Aug 3.1 03:12:16 15° ESE 03:12:16 15° ESE 03:13:21 10° E visible
02 Aug 0.6 04:44:32 13° WSW 04:47:21 87° N 04:50:33 10° ENE visible
